User: anonymous   Login
Location: Strawberry
(45.6646°N, 111.9596°W)
Time: 13:41:37
(UTC+00:00)
Language:

ITAMSAT 1 - Orbit

View from above orbital plane
View from above orbital plane
View from above satellite
View from above satellite

Ground track
Ground track

The orbit data is extracted from the following two-line orbital elements,

1 22826U 93061D   22341.85700647  .00000146  00000-0  73680-4 0  9997
2 22826  98.8629  16.2742 0007999 250.2083 109.8236 14.30566776523206
Epoch (UTC): 07 December 2022 20:34:05
Eccentricity: 0.0007999
inclination: 98.8629°
perigee height: 784 km
apogee height: 795 km
right ascension of ascending node: 16.2742°
argument of perigee: 250.2083°
revolutions per day: 14.30566776
mean anomaly at epoch: 109.8236°
orbit number at epoch: 52320

The dashed part of the orbit path shows where the satellite is in the earth's shadow,  

DLR